Regional Weather Roundup
Issued by NWS Burlington, VT

Home | Current Version | Previous Version | Text Only | Print | Product List | Glossary On
Versions: 1 2 3 4 5 6 7 8 9 10 11 12 13 14 15 16 17 18 19 20 21 22 23 24 25 26 27 28 29 30 31 32 33 34 35 36 37 38 39 40 41 42 43 44 45 46 47 48 49 50
000
ASUS41 KBTV 221830
RWRBTV
VERMONT REGIONAL WEATHER ROUNDUP
NATIONAL WEATHER SERVICE BURLINGTON VT
100 PM EST MON DEC 22 2014

NOTE: "FAIR" INDICATES FEW OR NO CLOUDS BELOW 12,000 FEET WITH NO
SIGNIFICANT WEATHER AND/OR OBSTRUCTIONS TO VISIBILITY.

* THESE REPORTS ARE NOT UNDER NWS QUALITY CONTROL AND/OR DO NOT
  REPORT WEATHER SUCH AS PRECIPITATION AND FOG.

VTZ001>019-221900-
_____VERMONT_____


CITY           SKY/WX    TMP DP  RH WIND       PRES   REMARKS
BURLINGTON     CLOUDY    27  21  78 NW5       30.34F FOG
6HR MIN TEMP:  22; 6HR MAX TEMP:  27;

MONTPELIER     CLOUDY    29  24  82 CALM      30.34S
6HR MIN TEMP:  23; 6HR MAX TEMP:  29;

MORRISVILLE    CLOUDY    31  24  75 S5        30.33F
6HR MIN TEMP:  23; 6HR MAX TEMP:  31;

ST. JOHNSBURY*   N/A     32  25  75 MISG      30.31F
6HR MIN TEMP:  25; 6HR MAX TEMP:  32;

LYNDONVILLE*   CLOUDY    31  23  73 SE3       30.31S
6HR MIN TEMP:  24; 6HR MAX TEMP:  31;

MIDDLEBURY*    CLOUDY    31  26  80 NW3       30.30F
6HR MIN TEMP:  25; 6HR MAX TEMP:  31;

RUTLAND*       CLOUDY    36  28  75 SE13      30.29F
6HR MIN TEMP:  25; 6HR MAX TEMP:  36;

SPRINGFIELD    CLOUDY    33  29  85 CALM      30.33F
6HR MIN TEMP:  28; 6HR MAX TEMP:  33; 6HR PCP: TRACE;

HIGHGATE*      CLOUDY    20  17  87 CALM      30.36R FOG
6HR MIN TEMP:  17; 6HR MAX TEMP:  20;

NEWPORT*       CLOUDY    28  22  80 CALM      30.31S
6HR MIN TEMP:  19; 6HR MAX TEMP:  28;

BENNINGTON     CLOUDY    38  30  73 SE7       30.27F
6HR MIN TEMP:  27; 6HR MAX TEMP:  39; 6HR PCP: TRACE;

SUTTON*          N/A     30 N/A N/A MISG        N/A
MT. MANSFIELD*   N/A     25 N/A N/A CALM        N/A

_____LAKE CHAMPLAIN_____


CITY           SKY/WX    TMP DP  RH WIND       PRES   REMARKS
BURTON ISLAND*   N/A     23  23 100 NW2         N/A
COLCHESTER RF*   N/A     25  25 100 NE7         N/A

$$

NYZ007-026>031-035-052-083-221900-
_____NORTHERN NEW YORK_____


CITY           SKY/WX    TMP DP  RH WIND       PRES   REMARKS
PLATTSBURGH    CLOUDY    23  21  92 CALM      30.35F FOG
6HR MIN TEMP:  18; 6HR MAX TEMP:  23;

SARANAC LAKE   MOCLDY    28  24  85 NE6       30.18F
6HR MIN TEMP:   2; 6HR MAX TEMP:  28;

MASSENA        CLOUDY    23  18  81 E12       30.33F WCI  12
6HR MIN TEMP:  17; 6HR MAX TEMP:  23;

OGDENSBURG*    MOCLDY    27  21  80 E8        30.25F
POTSDAM*       CLOUDY    21  21 100 E8        30.26F FOG
WATERTOWN      MOCLDY    38  26  62 NE5       30.21F
6HR MIN TEMP:  23; 6HR MAX TEMP:  37;

ALBANY         CLOUDY    34  26  72 NE5       30.29F
6HR MIN TEMP:  29; 6HR MAX TEMP:  34; 6HR PCP: TRACE;

GLENS FALLS    CLOUDY    33  26  75 CALM      30.31F
6HR MIN TEMP:  27; 6HR MAX TEMP:  33;


$$
NHZ002-005-011-221900-
_____NEW HAMPSHIRE_____


CITY           SKY/WX    TMP DP  RH WIND       PRES   REMARKS
LEBANON        CLOUDY    33  26  75 CALM      30.33F
6HR MIN TEMP:  27; 6HR MAX TEMP:  33;

KEENE          CLOUDY    37  32  81 CALM      30.33F
6HR MIN TEMP:  30; 6HR MAX TEMP:  36;

MT WASHINGTON  CLOUDY    23  -2  33 SW12        N/A  WCI  12
6HR MIN TEMP:  11; 6HR MAX TEMP:  23;

PLYMOUTH       CLOUDY    35  30  81 CALM      30.34S
6HR MIN TEMP:  28; 6HR MAX TEMP:  34;

WHITEFIELD     CLOUDY    33  28  81 CALM      30.30F
6HR MIN TEMP:  25; 6HR MAX TEMP:  33;


$$

_____REGIONAL QUEBEC LOCATIONS_____


CITY           SKY/WX    TMP DP  RH WIND       PRES   REMARKS
MONTREAL       CLOUDY    21  16  79 N9        30.38
QUEBEC CITY    FLURRIES  21  14  73 N3        30.40
SHERBROOKE     CLOUDY    27  25  93 E5        30.32F

_____REGIONAL ONTARIO LOCATIONS_____


CITY           SKY/WX    TMP DP  RH WIND       PRES   REMARKS
OTTAWA         CLOUDY    19  18  93 NE12      30.30  WCI   7

______KEY______
VSB  - VISIBILITY IN MILES
WCI  - WIND CHILL INDEX
HX   - HEAT INDEX
$$
NNNN



USA.gov is the U.S. government's official web portal to all federal, state and local government web resources and services.